Vertical_Velocity
-3 -4 -3 -3 -5 -2 -2 1 -2 -0 -0 0 1 -1 -1 -3 1 0 1 1 1 -1 0 -0 1 -0 -2 -0 -2 -1 -1 -1 -0 -1 -2 0 -0 0 -0 -1 -1 1 1 1 -1 -2 -1
1 -2 -5 0 -3 -2 -4 -5 -3 -1 -1 0 1 2 -1 -1 1 -0 -0 -1 0 1 -0 0 1 -0 -0 -2 -1 -0 0 -1 -1 -1 -1 -1 -1 0 -1 -2 -2 -1 -1 -0 1 1 1
4 2 -3 -4 -2 -1 -2 -3 -3 -2 -0 -1 -2 0 -0 -0 -0 -0 -0 -1 -0 -1 0 1 0 0 0 -0 -1 1 -1 0 -0 -1 -1 -1 -1 -0 0 -1 1 -1 -1 -1 0 2 -1
-6 2 3 -0 -4 -3 -1 -1 -1 -3 -3 0 1 -0 0 1 -0 -1 1 -1 -2 -0 -1 1 1 1 -0 -1 -2 -1 -0 -1 -1 -1 -0 -0 -1 0 1 0 -1 -1 0 -0 -1 0 1
1 -6 1 0 -0 -4 -3 -1 -1 -3 -2 -3 1 -2 -1 0 0 0 1 -1 -2 -0 -1 -0 1 0 0 -1 -1 -1 -1 -1 -1 -1 1 -0 0 -0 1 0 0 -0 -1 -1 -0 1 -1
5 5 -3 -1 1 0 -1 1 -1 -1 -2 -1 -2 -1 -3 -0 0 0 0 -1 0 -1 -1 -1 1 0 -0 1 0 -1 0 0 1 1 1 0 1 0 0 -1 -3 -2 -1 -1 -3 -2 -1
-4 0 6 -1 -1 1 -1 0 -0 -0 -1 -0 -1 -1 -0 -1 0 -0 -0 -0 2 -0 -1 -2 0 -0 0 -0 -0 2 1 0 1 1 1 0 -0 -2 2 2 -1 -1 -0 -1 -1 -2 -2
-3 -2 -2 7 0 -2 1 -1 0 -0 -1 -2 -2 -1 -0 -1 -0 -1 1 -1 1 1 -2 -1 -1 -0 1 0 -0 -0 2 1 1 1 1 0 -1 0 0 0 1 1 -0 -1 -1 -1 -0
-0 -5 -2 1 2 2 -3 0 0 -0 1 -3 -1 -2 1 -1 -2 -1 1 -0 2 2 -0 -3 0 -0 0 0 -1 -1 1 2 1 1 2 1 -0 -1 -1 -2 -0 -1 -0 -1 1 1 1
7 3 -5 2 -0 0 1 -3 -2 1 0 -0 -2 -1 -1 1 -3 -3 -3 0 1 0 -5 -0 -1 -3 -0 -0 -0 -0 0 1 1 -0 1 0 -0 -1 0 -0 2 2 0 1 1 1 -1
2 2 3 -2 -1 0 -1 2 -2 -4 2 2 -1 -1 -1 1 1 -0 1 0 1 1 -5 0 -1 2 1 0 -1 -1 1 1 -1 2 0 2 2 2 1 1 2 -0 1 1 1 1 1
7 -0 1 4 3 -5 0 -1 0 -0 -3 1 4 -1 -2 0 -1 -0 1 -0 1 1 -11 -3 -1 -2 -1 1 1 2 1 1 2 0 -0 0 0 -1 -1 1 2 1 1 2 2 4 1
1 2 2 0 4 3 -3 -5 0 -0 -1 -3 -0 3 2 0 0 2 0 1 2 -1 -1 0 -1 0 0 0 1 1 -0 1 0 0 -0 2 1 2 2 3 1 2 2 -1 -4 -1 -6
-8 -8 5 4 7 5 3 -2 -1 0 -1 -3 -3 -1 4 4 1 2 3 2 3 1 1 0 -1 -1 -1 -1 -0 1 -1 -1 1 2 1 1 -1 4 0 1 1 2 0 1 -2 -1 -3
-1 -5 3 6 5 5 4 3 -2 -2 2 2 -3 -3 -0 3 5 4 5 -2 -9 -1 1 -2 0 0 -0 -1 1 -0 -1 0 -1 1 -3 -2 -1 -0 -1 -0 -0 -1 -3 -2 0 -0 1
0 -3 -1 -9 1 3 3 1 4 -3 -1 2 2 -3 0 -1 3 5 6 -4 -5 -4 -1 0 -1 -0 -1 -2 0 1 -2 -2 -1 -0 1 -0 -2 -0 -0 2 -1 0 0 -1 -0 -2 -1
-2 1 -3 -5 1 18 10 15 4 2 -2 2 11 0 0 -0 3 4 -5 -2 1 4 2 1 -2 -2 -1 0 -1 -2 -0 -1 -2 -1 -1 0 2 -4 1 -3 2 1 -4 -1 1 0 -3
-7 -6 -0 0 -8 -2 4 3 -3 9 6 -3 2 11 2 2 1 2 -5 -2 1 2 3 0 1 1 -3 2 -1 2 -6 2 -1 -1 -2 1 3 -3 0 -1 0 0 -1 4 3 -4 -0
-2 1 -3 1 -3 -7 -13 12 18 14 14 4 -4 8 7 4 -4 -3 -3 -3 -0 1 -1 2 3 -2 1 -1 2 -0 -2 -3 -2 -1 0 -3 2 -1 1 2 -1 -2 -3 0 1 5 -10
4 -2 2 2 -2 1 -7 15 1 4 25 12 2 2 2 -0 4 2 4 -4 -1 -1 1 4 -1 3 4 1 -1 0 -4 1 2 0 0 4 1 -5 -10 2 -1 -6 -3 0 4 3 -6
2 4 -0 1 3 5 5 -14 4 -1 21 11 9 -13 -9 -5 5 2 8 -7 3 2 8 5 -3 0 5 5 3 -2 -1 0 -0 2 2 4 -2 -1 -1 2 4 5 3 -2 -3 -2 -1
2 2 2 2 -2 5 3 -6 4 -4 7 39 13 2 2 -2 3 5 16 -9 6 16 3 -4 -10 16 4 1 7 3 6 2 3 1 4 0 0 -2 -3 0 2 1 -3 -4 -4 7 -0
-1 1 1 2 4 0 2 4 -0 -2 1 -2 18 17 6 -0 -1 5 -5 1 6 1 -4 5 5 -3 -4 8 1 2 2 4 1 -1 2 4 0 -0 -2 -4 -2 -3 -9 -1 5 4 6
-0 2 -0 2 5 3 1 -3 -0 8 -1 -2 -6 13 5 -11 7 3 -5 -1 1 7 -1 5 0 9 1 1 3 1 2 2 3 0 2 -1 3 3 1 -1 -3 -1 -3 -3 1 0 -3
-2 2 0 2 4 2 1 4 9 2 -1 3 3 3 11 1 3 5 -1 4 0 10 1 5 3 2 -1 2 5 3 0 2 -6 3 0 4 3 0 -2 -2 -5 -2 -6 -1 -2 -4 1
-0 1 -1 -0 2 3 1 3 -1 4 2 7 4 -2 1 -5 -6 5 4 5 -1 -1 3 0 7 8 5 0 10 1 -4 3 1 -1 0 2 5 3 2 -1 -2 -1 1 -1 -1 -13 -0
-0 -0 -2 -1 -3 -1 1 2 1 6 3 3 8 8 5 -7 -5 -4 -5 8 4 -1 1 1 6 6 5 4 2 -3 -3 0 -3 -0 -4 3 4 -4 2 -1 -9 -5 1 1 -3 -3 -2
-1 -1 -0 -0 1 2 -0 2 1 -1 10 -3 6 8 -1 -2 2 -4 -0 -2 5 7 2 2 7 -1 7 3 1 -2 -1 1 -4 -3 -1 3 -4 -4 8 1 -14 -0 2 -4 -0 0 -2
3 2 2 1 1 -1 -0 2 1 1 9 2 -1 7 6 7 -6 -3 -2 1 3 2 0 0 3 -1 2 -9 -3 -0 0 0 2 -3 3 -4 -4 -3 -8 -2 -5 -3 -1 -3 -1 -2 -2
Height
3167 3168 3170 3169 3169 3168 3168 3168 3169 3169 3168 3167 3167 3167 3167 3166 3165 3165 3165 3163 3162 3161 3159 3158 3158 3158 3158 3160 3160 3159 3159 3159 3159 3158 3158 3158 3159 3160 3160 3161 3161 3162 3163 3164 3164 3164 3165
3167 3167 3168 3169 3170 3169 3168 3168 3167 3167 3167 3166 3166 3165 3165 3164 3164 3164 3164 3163 3161 3160 3159 3157 3157 3157 3157 3158 3158 3158 3158 3158 3157 3157 3157 3157 3158 3158 3158 3159 3160 3160 3161 3161 3162 3163 3163
3167 3166 3167 3167 3168 3169 3168 3167 3167 3166 3165 3165 3163 3163 3163 3162 3162 3162 3162 3161 3160 3159 3158 3157 3156 3155 3155 3157 3155 3155 3155 3155 3155 3155 3155 3156 3156 3157 3156 3157 3157 3158 3159 3160 3160 3161 3162
3165 3165 3164 3164 3166 3166 3167 3166 3165 3165 3164 3163 3162 3161 3161 3160 3160 3159 3160 3159 3159 3158 3156 3155 3155 3154 3153 3152 3152 3153 3152 3153 3153 3153 3154 3154 3154 3154 3154 3155 3155 3156 3157 3157 3158 3159 3159
3160 3161 3163 3161 3161 3163 3163 3164 3164 3163 3162 3162 3160 3160 3159 3158 3158 3157 3157 3157 3157 3156 3155 3153 3153 3152 3151 3150 3150 3150 3150 3151 3151 3151 3151 3151 3151 3152 3153 3152 3153 3153 3153 3154 3156 3156 3156
3159 3158 3158 3160 3158 3157 3159 3159 3161 3160 3160 3160 3159 3157 3157 3156 3156 3155 3155 3155 3154 3154 3153 3151 3150 3151 3149 3148 3147 3147 3147 3147 3147 3147 3148 3148 3148 3148 3149 3150 3151 3150 3151 3152 3153 3154 3153
3153 3156 3154 3155 3156 3155 3153 3154 3155 3157 3157 3157 3156 3155 3155 3154 3153 3153 3153 3153 3154 3152 3149 3149 3148 3146 3144 3144 3144 3144 3144 3144 3144 3145 3145 3145 3146 3146 3148 3149 3150 3150 3150 3150 3150 3151 3150
3152 3150 3152 3150 3151 3152 3151 3150 3149 3151 3153 3153 3153 3152 3153 3152 3151 3150 3150 3150 3149 3149 3147 3145 3143 3142 3140 3139 3139 3139 3141 3141 3141 3141 3141 3144 3144 3145 3146 3147 3147 3148 3148 3147 3147 3146 3146
3148 3147 3147 3147 3147 3147 3147 3147 3146 3146 3147 3148 3149 3149 3149 3149 3149 3148 3147 3147 3146 3145 3143 3141 3139 3138 3137 3136 3135 3136 3138 3137 3138 3139 3140 3141 3142 3142 3143 3144 3144 3144 3144 3145 3145 3143 3141
3141 3141 3144 3142 3144 3143 3143 3143 3143 3143 3142 3143 3145 3146 3146 3146 3148 3145 3145 3145 3144 3143 3141 3137 3135 3135 3135 3134 3135 3135 3135 3138 3137 3138 3138 3140 3139 3140 3140 3141 3142 3141 3141 3142 3141 3141 3139
3134 3135 3137 3138 3139 3139 3138 3139 3138 3139 3139 3138 3139 3140 3142 3142 3142 3142 3143 3142 3142 3143 3141 3135 3131 3131 3132 3134 3134 3134 3134 3135 3136 3136 3138 3137 3136 3137 3138 3139 3139 3139 3138 3138 3137 3136 3134
3129 3128 3129 3130 3132 3134 3134 3133 3135 3134 3135 3135 3133 3135 3137 3138 3138 3139 3138 3139 3141 3144 3135 3130 3129 3129 3131 3131 3132 3132 3133 3134 3134 3133 3134 3134 3134 3135 3135 3135 3135 3135 3135 3135 3133 3131 3128
3123 3122 3122 3123 3124 3126 3127 3129 3128 3130 3129 3131 3130 3129 3131 3132 3134 3135 3135 3137 3139 3135 3131 3127 3126 3127 3129 3130 3130 3130 3130 3131 3132 3131 3130 3130 3130 3130 3130 3130 3131 3131 3133 3132 3132 3130 3123
3115 3116 3115 3115 3116 3117 3118 3122 3123 3123 3124 3125 3126 3126 3125 3126 3128 3130 3132 3134 3132 3127 3125 3124 3124 3125 3127 3127 3128 3127 3127 3127 3127 3127 3128 3127 3127 3126 3125 3127 3128 3128 3130 3130 3128 3127 3120
3106 3107 3106 3106 3107 3108 3110 3112 3115 3116 3117 3118 3120 3121 3121 3121 3122 3124 3127 3124 3123 3122 3122 3121 3122 3122 3123 3124 3125 3123 3122 3122 3122 3123 3126 3123 3123 3122 3123 3123 3126 3126 3127 3128 3126 3123 3120
3097 3097 3097 3098 3099 3100 3102 3103 3105 3107 3109 3111 3112 3114 3116 3117 3117 3117 3117 3114 3114 3116 3117 3117 3117 3118 3117 3118 3120 3119 3118 3117 3117 3118 3119 3119 3120 3119 3120 3121 3122 3122 3124 3124 3124 3123 3116
3090 3091 3090 3089 3091 3092 3093 3094 3095 3097 3100 3101 3103 3105 3107 3110 3110 3109 3104 3106 3107 3110 3112 3113 3112 3112 3113 3113 3114 3114 3114 3113 3113 3114 3115 3115 3117 3117 3115 3115 3116 3117 3116 3118 3120 3117 3112
3078 3081 3084 3084 3083 3081 3085 3085 3086 3086 3089 3091 3092 3094 3095 3098 3101 3096 3095 3100 3102 3103 3105 3105 3105 3106 3107 3107 3107 3108 3108 3109 3108 3109 3109 3110 3109 3109 3110 3110 3109 3110 3110 3113 3114 3112 3108
3070 3070 3070 3075 3077 3077 3077 3079 3078 3080 3079 3081 3082 3084 3084 3086 3086 3086 3090 3092 3094 3095 3097 3097 3098 3098 3099 3100 3102 3099 3100 3101 3102 3103 3103 3103 3102 3104 3103 3104 3102 3101 3102 3104 3105 3103 3098
3059 3062 3061 3063 3065 3069 3070 3068 3070 3072 3072 3073 3072 3074 3075 3074 3076 3079 3082 3083 3084 3086 3087 3088 3089 3090 3091 3091 3092 3091 3092 3094 3095 3095 3096 3098 3095 3094 3093 3092 3093 3094 3095 3095 3095 3094 3086
3049 3052 3053 3055 3055 3058 3061 3060 3062 3064 3065 3064 3062 3063 3066 3066 3067 3068 3069 3069 3073 3075 3078 3079 3079 3080 3083 3083 3084 3083 3086 3087 3088 3089 3089 3089 3086 3087 3087 3089 3087 3085 3086 3088 3084 3083 3080
3040 3042 3045 3047 3049 3049 3051 3049 3054 3057 3057 3056 3055 3056 3059 3060 3060 3061 3059 3059 3064 3065 3064 3066 3067 3071 3072 3074 3077 3077 3079 3080 3081 3081 3082 3081 3078 3079 3077 3082 3080 3074 3076 3078 3075 3073 3068
3031 3034 3036 3038 3040 3041 3042 3042 3046 3048 3048 3046 3050 3049 3051 3051 3054 3054 3053 3054 3053 3052 3054 3057 3059 3060 3062 3067 3068 3070 3071 3073 3072 3074 3076 3076 3075 3074 3070 3072 3072 3065 3061 3062 3062 3061 3062
3022 3026 3028 3030 3032 3034 3034 3034 3037 3041 3038 3040 3043 3045 3045 3045 3047 3047 3047 3049 3047 3047 3048 3050 3051 3053 3055 3057 3060 3062 3064 3064 3065 3066 3067 3066 3068 3070 3067 3068 3067 3052 3052 3054 3054 3052 3055
3013 3017 3020 3023 3024 3027 3028 3029 3030 3032 3034 3034 3035 3038 3038 3038 3039 3040 3041 3043 3044 3043 3043 3046 3047 3047 3048 3050 3052 3053 3054 3056 3055 3056 3056 3058 3060 3063 3064 3060 3051 3046 3045 3047 3048 3049 3050
3006 3009 3012 3015 3017 3020 3021 3022 3024 3026 3027 3027 3028 3029 3031 3032 3033 3037 3037 3036 3037 3038 3039 3039 3041 3041 3041 3041 3044 3043 3045 3046 3046 3045 3046 3049 3051 3057 3056 3057 3050 3042 3041 3041 3042 3040 3042
2998 3001 3004 3007 3010 3012 3014 3016 3017 3019 3020 3022 3022 3023 3026 3027 3028 3030 3031 3032 3032 3032 3032 3032 3034 3034 3035 3035 3037 3037 3038 3039 3041 3037 3039 3042 3042 3044 3048 3048 3039 3036 3038 3039 3042 3043 3038
2991 2994 2997 2999 3002 3005 3007 3009 3012 3013 3015 3015 3016 3017 3020 3021 3021 3023 3025 3027 3027 3027 3027 3030 3030 3025 3028 3029 3030 3029 3031 3030 3033 3031 3032 3035 3035 3035 3040 3043 3036 3030 3032 3037 3037 3033 3034
2986 2988 2990 2992 2995 2997 3000 3003 3005 3006 3010 3010 3010 3011 3012 3014 3014 3018 3019 3021 3022 3022 3022 3023 3022 3022 3023 3024 3025 3024 3023 3023 3023 3026 3025 3028 3026 3026 3029 3026 3025 3025 3026 3027 3027 3027 3027